Simultaneous Nadir Overpasses (SNOs) Predictions

Prediction of SNOs between METOP-B and NOAA-19 Satellite Orbit:

Table of predicted SNOs for the next 14.0 days since TLE Epoch: 10/18/2014
Index Date (METOP-B) Time (METOP-B) Lat,Lon (METOP-B) SZA (METOP-B ) Date (NOAA-19) Time (NOAA-19) Lat,Lon (NOAA-19) SZA (NOAA-19 ) Distance(km) Time Diff (sec)
1 10/25/2014 09:35:12 74.39, 31.86 86.44 10/25/2014 09:34:00 74.37, 31.84 86.41 2.72 72
2 10/25/2014 10:25:54 -74.35,-160.91 93.60 10/25/2014 10:24:58 -74.38,-160.94 93.57 3.51 56
3 10/25/2014 11:16:34 74.37, 6.45 86.43 10/25/2014 11:16:03 74.35, 6.37 86.42 2.96 31
4 10/25/2014 12:07:16 -74.33, 173.68 93.60 10/25/2014 12:07:00 -74.32, 173.72 93.61 1.51 16
5 10/25/2014 12:57:57 74.29, -19.07 86.38 10/25/2014 12:58:05 74.29, -18.97 86.38 3.33 8
6 10/25/2014 13:48:38 -74.30, 148.28 93.60 10/25/2014 13:49:03 -74.30, 148.25 93.60 0.87 25
7 10/25/2014 14:39:19 74.27, -44.48 86.38 10/25/2014 14:40:08 74.27, -44.44 86.39 1.29 49
8 10/25/2014 15:30:00 -74.28, 122.88 93.60 10/25/2014 15:31:06 -74.28, 122.79 93.59 2.91 66
9 10/25/2014 16:20:54 73.60, -71.44 85.75 10/25/2014 16:21:59 73.67, -68.42 85.81 94.85 65




NCC Satellite Simultaneous Nadir Overpasses (SNOs) Prediction Service
